[[{"header":{"parameterUnit":"m.s-1","parameterCategory":1,"la1":30.2991,"la2":30.254,"lo1":-89.0895,"lo2":-89.0444,"dy":0.0017,"dx":0.0017,"nx":28,"ny":28,"refTime":"2025-06-05T09:00:00:Z","depth":0,"parameterNumber":2,"parameterNumberName":"U-component_of_WINDS"},"data":[0,0,0,0,0,0,0,0,0,0,0,0,0,0,0,0,0,0,0,0,0,0,0,0,0,0,0,0,0,0,0,0,0,0,0,0,0,0,0,0,0,0,0,0,0,0,0,0,0,0,0,0,0,0,0,0,0,0,2.7994,2.7994,0,2.7999,2.7999,2.7999,2.7889,2.7887,2.7884,2.7881,2.789,2.7893,2.7896,0,0,0,0,0,0,0,0,0,0,0,0,0,2.7893,2.7895,2.7994,2.7994,2.7994,2.7999,2.7999,2.7999,2.789,2.7886,2.7883,2.7879,2.7889,2.7892,2.7896,0,0,0,0,0,0,0,0,0,0,0,0,0,2.7921,2.7896,2.7994,2.794,2.7935,2.7999,2.7999,2.7999,2.7891,2.7886,2.7882,2.7878,2.7888,2.7892,2.7897,2.8013,0,0,2.791,2.7912,0,0,0,0,0,0,0,0,2.792,2.7925,2.7948,2.7944,2.7939,2.7939,2.7966,2.8004,2.7892,2.7908,2.7881,2.7876,2.791,2.7912,2.7923,2.8013,2.8014,2.7911,2.7913,2.7915,2.7917,0,0,0,0,0,0,0,2.7918,2.7924,2.7996,2.7949,2.7943,2.7917,2.7916,2.7973,2.7934,2.7906,2.7898,2.79,2.7907,2.7919,2.7923,2.8014,2.7911,2.7914,2.7917,2.7919,2.8196,2.8201,0,0,0,0,0,0,2.7923,2.7923,2.7996,2.7996,2.7918,2.7922,2.7921,2.7943,2.7933,2.7927,2.7904,2.7895,2.7914,2.7917,2.7923,2.8056,2.7915,2.7919,2.7922,2.8192,2.8197,2.8203,0,0,0,0,0,0,2.7921,2.793,2.7996,2.7958,2.7964,2.7928,2.7954,2.7946,2.7958,2.7931,2.7924,2.7923,2.791,2.7916,2.799,2.8055,2.7921,2.7926,2.8186,2.8194,2.82,2.8325,0,0,0,0,0,0,2.7919,2.793,2.7974,2.7959,2.7966,2.8063,2.7958,2.7949,2.7966,2.7954,2.7948,2.7942,2.7907,2.7984,2.7995,2.8058,2.7929,2.818,2.819,2.8198,2.8315,2.8335,2.8353,0,0,0,0,0,2.7915,2.801,2.7977,2.7986,2.802,2.8067,2.8071,2.8027,2.7971,2.8015,2.7997,2.7943,2.8046,2.7993,2.8004,2.807,2.8176,2.8187,2.8197,2.8306,2.8331,2.8352,0,0,0,0,0,0,2.8036,2.8008,2.797,2.8063,2.8068,2.8048,2.8102,2.8056,2.8078,2.8066,2.8013,2.8012,2.8095,2.809,2.8031,2.818,2.8101,2.8114,2.818,2.8204,2.8222,2.8222,2.7933,0,0,0,0,0,2.8073,2.8112,2.8086,2.8171,2.8175,2.8138,2.8157,2.8123,2.8127,2.8129,2.8116,2.8123,2.8156,2.818,2.821,2.8313,2.831,2.8364,2.8383,2.8399,2.8411,2.8463,2.8487,2.8237,2.8237,2.8237,0,0,2.815,2.814,2.8169,2.8194,2.8194,2.8237,2.8141,2.8191,2.8222,2.8137,2.8205,2.8196,2.82,2.8289,2.8327,2.8287,2.8479,2.8412,2.8425,2.8428,2.8476,2.85,2.8521,2.8244,2.8243,2.8242,0,0,2.8313,2.8309,2.8378,2.8379,2.8379,2.8354,2.837,2.8357,2.8348,2.8415,2.8351,2.8388,2.8447,2.8452,2.8462,2.8624,2.8574,2.8635,2.8734,2.8786,2.8805,2.8822,2.8879,2.8899,2.8647,2.8647,2.8648,0,2.8409,2.847,2.842,2.8472,2.8485,2.8408,2.8477,2.8481,2.8492,2.8503,2.8457,2.8528,2.8526,2.8613,2.8652,2.8664,2.868,2.8635,2.8806,2.8823,2.8838,2.8891,2.8913,2.8655,2.8654,2.8653,2.8652,0,2.8588,2.8631,2.8686,2.8696,2.8715,2.8776,2.8735,2.8761,2.8724,2.8704,2.8772,2.8766,2.8792,2.881,2.8777,2.8893,2.8868,2.8815,2.8735,2.887,2.8919,2.8939,2.8665,2.8662,2.866,2.8658,0,0,2.8827,2.8806,2.8827,2.8829,2.8823,2.8855,2.8912,2.8936,2.8958,2.8968,2.9014,2.9065,2.9015,2.9027,2.8993,2.9038,2.9164,2.898,2.8979,2.9013,2.929,2.9329,2.9353,2.9131,2.9135,2.9138,2.9289,0,2.8983,2.9078,2.9033,2.9133,2.9171,2.9097,2.9147,2.9149,2.9131,2.9161,2.9142,2.9178,2.9111,2.9117,2.9159,2.914,2.9219,2.9129,2.9174,2.9176,2.9174,2.9379,2.942,2.9563,2.9308,2.9311,2.9314,0,2.9178,2.9193,2.9296,2.928,2.9294,2.934,2.9356,2.9386,2.9386,2.937,2.9382,2.9336,2.9391,2.9311,2.9386,2.9325,2.9341,2.9335,2.9339,2.9341,2.9253,2.9385,2.9608,2.9629,2.9344,2.9341,2.9339,0,2.934,2.9386,2.9453,2.9458,2.9441,2.9474,2.9469,2.9465,2.9481,2.9496,2.9505,2.9528,2.954,2.9558,2.952,2.9466,2.9599,2.9517,2.9587,2.9588,2.9618,2.9617,2.9846,2.9631,2.963,2.963,2.9629,0,2.9518,2.9584,2.9525,2.9566,2.9637,2.9586,2.9658,2.9645,2.9641,2.9678,2.9617,2.9654,2.9602,2.9633,2.9604,2.9669,2.9676,2.9664,2.9655,2.9669,2.967,2.9678,2.9667,2.9636,2.9634,2.9633,2.9632,0,2.9711,2.9674,2.9742,2.972,2.9716,2.9769,2.975,2.9788,2.9765,2.9813,2.9821,2.9786,2.982,2.9783,2.9816,2.9796,2.9883,2.986,2.9883,2.9876,2.9947,2.9941,3.0188,3.0218,2.9985,2.9988,2.999,0,2.9826,2.9875,2.9857,2.9876,2.9874,2.9908,2.9923,2.9874,2.9892,2.9894,2.9932,2.996,2.9979,3.0037,3.0015,3.0039,3.0015,3.0101,3.0019,3.003,3.0015,3.0012,3.0016,3.0117,3.012,3.0122,3.0124,0,3.0035,3.0014,3.0037,3.0054,3.0073,3.0085,3.0092,3.0112,3.0061,3.0085,3.0117,3.0133,3.0164,3.0192,3.0209,3.0205,3.0156,3.015,3.0167,3.0181,3.0191,3.0185,2.9927,3.0145,3.0143,3.0141,3.014,3.0139,3.0191,3.023,3.0222,3.025,3.025,3.0257,3.029,3.027,3.0296,3.0316,3.0286,3.0326,3.0324,3.0341,3.0342,3.0373,3.0337,3.0362,3.0368,3.0375,3.0385,3.0187,3.0376,3.0376,3.0375,3.0374,3.0374,0,3.0395,3.0386,3.0412,3.0422,3.0444,3.0394,3.0399,3.0421,3.0456,3.0457,3.0477,3.0514,3.0541,3.052,3.0543,3.0572,3.055,3.0579,3.0576,3.0575,3.0417,3.0399,3.0596,3.0596,3.0596,3.0596,3.0596,3.0596,3.0503,3.0565,3.0543,3.0603,3.0594,3.0632,3.0638,3.0645,3.0644,3.0688,3.0709,3.0695,3.0686,3.0707,3.073,3.0723,3.0734,3.0771,3.0756,3.0609,3.0587,3.0566,3.0549,3.0774,3.0774,3.0911,3.0913,3.0914]},{"header":{"parameterUnit":"m.s-1","parameterCategory":1,"la1":30.2991,"la2":30.254,"lo1":-89.0895,"lo2":-89.0444,"dy":0.0017,"dx":0.0017,"nx":28,"ny":28,"refTime":"2025-06-05T09:00:00:Z","depth":0,"parameterNumber":3,"parameterNumberName":"V-component_of_WINDS"},"data":[0,0,0,0,0,0,0,0,0,0,0,0,0,0,0,0,0,0,0,0,0,0,0,0,0,0,0,0,0,0,0,0,0,0,0,0,0,0,0,0,0,0,0,0,0,0,0,0,0,0,0,0,0,0,0,0,0,0,3.2506,3.2507,0,3.2662,3.2664,3.2665,3.2679,3.2677,3.2676,3.2674,3.2832,3.2838,3.2844,0,0,0,0,0,0,0,0,0,0,0,0,0,3.2216,3.2221,3.2505,3.2507,3.2509,3.2662,3.2664,3.2666,3.2679,3.2677,3.2675,3.2673,3.283,3.2837,3.2844,0,0,0,0,0,0,0,0,0,0,0,0,0,3.2354,3.2223,3.2505,3.2534,3.2539,3.2661,3.2664,3.2666,3.268,3.2677,3.2675,3.2672,3.2828,3.2837,3.2845,3.2948,0,0,3.2871,3.2875,0,0,0,0,0,0,0,0,3.2346,3.2364,3.2528,3.2533,3.2538,3.2648,3.262,3.2761,3.268,3.2626,3.2674,3.2671,3.2773,3.2786,3.2821,3.2956,3.2963,3.2872,3.2877,3.2881,3.2884,0,0,0,0,0,0,0,3.2336,3.2358,3.2567,3.253,3.2536,3.2539,3.2556,3.2646,3.2712,3.2631,3.2632,3.265,3.2775,3.2812,3.2825,3.2965,3.2872,3.288,3.2885,3.2888,3.3191,3.3194,0,0,0,0,0,0,3.2322,3.235,3.2562,3.2572,3.2434,3.2546,3.2565,3.2615,3.2711,3.2723,3.2652,3.2651,3.2799,3.2814,3.283,3.2957,3.2881,3.2889,3.2894,3.3188,3.3192,3.3195,0,0,0,0,0,0,3.2315,3.234,3.2556,3.2461,3.2489,3.2554,3.261,3.262,3.2657,3.2727,3.2739,3.2679,3.2798,3.2818,3.2919,3.2962,3.2893,3.2901,3.3185,3.3189,3.3193,3.3211,0,0,0,0,0,0,3.2307,3.2338,3.2379,3.2462,3.2494,3.2643,3.2613,3.2625,3.2672,3.2671,3.2755,3.2766,3.2797,3.2906,3.2927,3.2973,3.2908,3.3181,3.3187,3.3192,3.3207,3.3215,3.3223,0,0,0,0,0,3.2297,3.2377,3.2381,3.2406,3.2546,3.2645,3.2663,3.2698,3.2676,3.2717,3.2761,3.2764,3.2954,3.2916,3.294,3.2989,3.3179,3.3185,3.3191,3.3203,3.3214,3.3223,0,0,0,0,0,0,3.2297,3.2389,3.2394,3.2504,3.2567,3.2647,3.27,3.2708,3.2778,3.2774,3.2813,3.2832,3.2931,3.297,3.2926,3.3094,3.3064,3.3075,3.3064,3.3075,3.3083,3.3071,3.2915,0,0,0,0,0,3.231,3.2384,3.2459,3.2549,3.2581,3.2635,3.2679,3.27,3.2767,3.2793,3.2845,3.2909,3.2983,3.3031,3.3103,3.3212,3.323,3.3258,3.3266,3.3272,3.3282,3.3341,3.3354,3.3216,3.3216,3.3216,0,0,3.2337,3.2397,3.2441,3.2551,3.2602,3.2677,3.2657,3.2737,3.2792,3.2805,3.2904,3.2944,3.3017,3.3122,3.3171,3.3158,3.3324,3.328,3.3285,3.3291,3.3349,3.3362,3.3374,3.322,3.3219,3.3219,0,0,3.2426,3.2478,3.2559,3.261,3.2688,3.2723,3.2742,3.2822,3.285,3.2949,3.296,3.3026,3.3153,3.3204,3.3247,3.3354,3.3358,3.3376,3.3418,3.3475,3.3486,3.3496,3.3533,3.3546,3.3385,3.3385,3.3385,0,3.245,3.2563,3.2599,3.2678,3.2726,3.2741,3.2822,3.287,3.2967,3.2999,3.2984,3.3143,3.3193,3.331,3.3336,3.3371,3.3393,3.3367,3.3482,3.3492,3.3502,3.3538,3.3552,3.3387,3.3387,3.3387,3.3386,0,3.2589,3.2667,3.2722,3.2816,3.287,3.295,3.2996,3.3047,3.3062,3.3099,3.3199,3.3261,3.3345,3.3374,3.339,3.3493,3.3483,3.3474,3.3445,3.3516,3.355,3.3565,3.3389,3.3389,3.3388,3.3388,0,0,3.2682,3.2794,3.2814,3.2856,3.2942,3.3003,3.3083,3.3166,3.3208,3.3274,3.3341,3.3448,3.344,3.3489,3.3511,3.3562,3.3641,3.3547,3.3549,3.3562,3.3757,3.3763,3.3779,3.3644,3.3647,3.3649,3.3751,0,3.278,3.2923,3.2957,3.308,3.3152,3.3167,3.3236,3.3296,3.3332,3.3398,3.3438,3.3512,3.3497,3.3526,3.3577,3.3621,3.3681,3.3614,3.3707,3.371,3.3688,3.3797,3.3804,3.3897,3.3765,3.3767,3.3769,0,3.2913,3.2982,3.3112,3.3188,3.322,3.3282,3.336,3.3423,3.3491,3.3513,3.3567,3.3584,3.3667,3.3633,3.3747,3.3701,3.374,3.3768,3.3772,3.3782,3.3743,3.3809,3.3927,3.3941,3.379,3.3789,3.3787,0,3.2967,3.3093,3.3187,3.3223,3.3314,3.3357,3.3397,3.3462,3.351,3.3578,3.3609,3.3685,3.3727,3.3785,3.3822,3.3794,3.3933,3.3902,3.3953,3.3952,3.3982,3.3979,3.4107,3.4007,3.4007,3.4007,3.4007,0,3.3072,3.3151,3.3212,3.327,3.3358,3.3396,3.3482,3.3522,3.358,3.3645,3.3662,3.3722,3.3767,3.3833,3.3862,3.3952,3.397,3.399,3.3997,3.3989,3.3986,3.4016,3.401,3.4011,3.401,3.4009,3.4008,0,3.3148,3.3192,3.3295,3.3373,3.3395,3.3456,3.3523,3.3579,3.3615,3.3697,3.3718,3.3775,3.3854,3.3896,3.3995,3.4014,3.4114,3.4117,3.4091,3.4094,3.4142,3.4137,3.4293,3.4315,3.4201,3.4202,3.4203,0,3.3212,3.3273,3.3357,3.3403,3.3443,3.3516,3.3564,3.3603,3.3653,3.3734,3.378,3.386,3.3926,3.4051,3.41,3.4176,3.4181,3.423,3.4192,3.4182,3.4181,3.4177,3.4183,3.4237,3.4238,3.4239,3.4239,0,3.3321,3.334,3.3409,3.3487,3.3544,3.3607,3.3668,3.3704,3.3753,3.3807,3.3888,3.394,3.404,3.4119,3.4198,3.4238,3.4247,3.4251,3.4267,3.4259,3.4241,3.4251,3.4109,3.4247,3.4246,3.4246,3.4245,3.4245,3.3393,3.3447,3.3515,3.3592,3.3642,3.3699,3.3756,3.3799,3.3868,3.3953,3.3971,3.4057,3.4122,3.4229,3.4271,3.4338,3.4328,3.4351,3.4357,3.4362,3.4364,3.4231,3.4353,3.4353,3.4352,3.4352,3.4352,0,3.3502,3.3546,3.3616,3.3702,3.3762,3.3766,3.3834,3.3884,3.3959,3.402,3.4084,3.4177,3.4253,3.4308,3.4386,3.4429,3.4435,3.4448,3.4445,3.4454,3.4368,3.4347,3.4442,3.4442,3.4442,3.4442,3.4442,3.4442,3.3566,3.3658,3.3685,3.3802,3.3846,3.393,3.3969,3.4021,3.4069,3.4172,3.4236,3.4272,3.433,3.4412,3.4482,3.4496,3.4523,3.4536,3.4551,3.447,3.446,3.4451,3.4431,3.4542,3.4542,3.4631,3.4632,3.4632]}]]